Minot AFB, ND

5:15 AM CST on November 14, 2019 (GMT -0600)
Minot Air Force Base

Weather History for KMIB - September, 2019

Change the Weather History Date:

Friday, September 6, 2019

  Actual Average Record
Temperature  
Mean Temperature 60 °F -  
Max Temperature 72 °F 73 °F 90 °F (2013)
Min Temperature 48 °F 48 °F 39 °F (2008)
Degree Days  
Heating Degree Days 5    
Growing Degree Days 10 (Base 50)    
Moisture  
Dew Point 49 °F    
Average Humidity 67    
Maximum Humidity 96    
Minimum Humidity 34    
Precipitation  
Precipitation 0.00 in - - ()
Sea Level Pressure  
Sea Level Pressure 30.20 in    
Wind  
Wind Speed 7 mph (NNW)    
Max Wind Speed 12 mph    
Max Gust Speed -    
Visibility 10 miles    
Events      
Averages and records for this station are not official NWS values.
T = Trace of Precipitation, MM = Missing Value Source: NWS Daily Summary

Daily Weather History Graph

Daily Weather History Graph

Search for Another Location

Airport or City:

Astronomy

Sep. 06, 2019 Rise Set
Actual Time 7:09 AM CDT 8:17 PM CDT
Civil Twilight 6:37 AM CDT 8:49 PM CDT
Nautical Twilight 5:58 AM CDT 9:27 PM CDT
Astronomical Twilight 5:17 AM CDT 10:08 PM CDT
Moon 3:57 PM CDT (9/6) 12:01 AM CDT (9/6)
Length of Visible Light 14h 11m
Length of Day
13h 07m
First Quarter, 56% of the Moon is Illuminated
Sep 6
First Quarter
Sep 13
Full
Sep 21
Last Quarter
Sep 28
New
Oct 5
First Quarter

Hourly Weather History & Observations

Time (CDT) Temp. Dew Point Humidity Pressure Visibility Wind Dir Wind Speed Gust Speed Precip Events Conditions
12:56 AM 59.2 °F 55.0 °F 86% 30.14 in 10.0 mi NNW 9.2 mph - N/A   Clear
1:56 AM 59.2 °F 54.3 °F 84% 30.17 in 10.0 mi NNW 8.1 mph - N/A   Clear
2:56 AM 52.9 °F 50.9 °F 93% 30.19 in 10.0 mi WNW 5.8 mph - N/A   Clear
3:56 AM 53.4 °F 51.1 °F 92% 30.19 in 10.0 mi WNW 6.9 mph - N/A   Clear
4:56 AM 50.5 °F 48.9 °F 94% 30.20 in 10.0 mi NW 6.9 mph - N/A   Clear
5:56 AM 49.8 °F 48.4 °F 95% 30.21 in 10.0 mi WNW 4.6 mph - N/A   Clear
6:56 AM 48.0 °F 46.9 °F 96% 30.22 in 10.0 mi WNW 5.8 mph - N/A   Clear
7:56 AM 51.1 °F 50.0 °F 96% 30.24 in 10.0 mi West 4.6 mph - N/A   Scattered Clouds
8:56 AM 57.9 °F 54.7 °F 89% 30.24 in 10.0 mi WNW 4.6 mph - N/A   Clear
9:56 AM 62.8 °F 54.7 °F 75% 30.25 in 10.0 mi NW 4.6 mph - N/A   Clear
10:56 AM 66.4 °F 55.4 °F 68% 30.24 in 10.0 mi North 4.6 mph - N/A   Clear
11:56 AM 67.3 °F 53.4 °F 61% 30.24 in 10.0 mi North 5.8 mph - N/A   Clear
12:56 PM 70.5 °F 50.4 °F 49% 30.22 in 10.0 mi NW 11.5 mph - N/A   Partly Cloudy
1:56 PM 71.1 °F 48.6 °F 45% 30.20 in 10.0 mi NW 6.9 mph - N/A   Clear
2:56 PM 71.8 °F 48.7 °F 44% 30.20 in 10.0 mi North 8.1 mph - N/A   Clear
3:56 PM 72.3 °F 46.6 °F 40% 30.19 in 10.0 mi NNE 6.9 mph - N/A   Clear
4:56 PM 72.3 °F 42.4 °F 34% 30.18 in 10.0 mi North 6.9 mph - N/A   Clear
5:56 PM 71.8 °F 43.3 °F 36% 30.17 in 10.0 mi North 8.1 mph - N/A   Clear
6:56 PM 68.9 °F 44.8 °F 42% 30.17 in 10.0 mi NE 8.1 mph - N/A   Clear
7:56 PM 65.7 °F 46.0 °F 49% 30.17 in 10.0 mi ENE 6.9 mph - N/A   Partly Cloudy
8:56 PM 62.4 °F 45.5 °F 54% 30.17 in 10.0 mi ENE 6.9 mph - N/A   Clear
9:56 PM 61.2 °F 46.8 °F 59% 30.17 in 10.0 mi East 6.9 mph - N/A   Scattered Clouds
10:56 PM 60.4 °F 45.5 °F 58% 30.17 in 10.0 mi East 8.1 mph - N/A   Scattered Clouds
11:56 PM 57.2 °F 48.2 °F 72% 30.16 in 10.0 mi ESE 4.6 mph - N/A   Clear